Regional Weather Roundup
Issued by NWS Wakefield, VA

Home | Current Version | Previous Version | Text Only | Print | Product List | Glossary Off
Versions: 1 2 3 4 5 6 7 8 9 10 11 12 13 14 15 16 17 18 19 20 21 22 23 24 25 26 27 28 29 30 31 32 33 34 35 36 37 38 39 40 41 42 43 44 45 46 47 48 49 50

967
ASUS41 KAKQ 281715
RWRAKQ

REGIONAL WEATHER ROUNDUP
NATIONAL WEATHER SERVICE WAKEFIELD VA
100 PM EDT WED SEP 28 2016

Note: "fair" indicates few or no clouds below 12,000 feet with no
significant weather and/or obstructions to visibility. * = Denotes
station may not report precipitation (e.g., rain,snow,etc.),
thunder or fog.

VAZ042-051-052>054-056-281800-
NORTHERN VIRGINIA

CITY           SKY/WX    TMP DP  RH WIND       PRES   REMARKS
WASH NATIONAL  CLOUDY    69  65  86 NE7       30.02R
DULLES         LGT RAIN  64  61  90 E10       30.01F FOG
FORT BELVOIR   LGT RAIN  68  64  88 VRB2      30.01R
QUANTICO       CLOUDY    68  63  84 E6        30.01R
FREDERICKSBRG* CLOUDY    66  66 100 E6        29.99R
STAFFORD*      CLOUDY    66  65  98 E6        30.04R
WARRENTON      DRIZZLE   66  61  85 N5        30.00S
CULPEPER*      RAIN      66  65  97 NE3       30.01S
MANASSAS*      NOT AVBL
LEESBURG*      CLOUDY    68  63  83 E8G16     30.03S
WINCHESTER     CLOUDY    64  59  82 E5        30.02F
FRONT ROYAL*   CLOUDY    63  61  94 E6        30.01S
LURAY*         PTSUNNY   68  64  88 N8        29.99F
$$

VAZ048-049-060>072-079>083-281800-
CENTRAL AND SOUTH CENTRAL VIRGINIA

CITY           SKY/WX    TMP DP  RH WIND       PRES   REMARKS
RICHMOND       CLOUDY    75  68  78 SE9       29.96F
CHESTERFIELD*  CLOUDY    79  57  47 S7        29.97S
PETERSBURG*    CLOUDY    77  61  56 SE3       29.97S
HANOVER        CLOUDY    75  68  78 VRB5      29.98S
TAPPAHANNOCK*  CLOUDY    72  71  98 E8        29.99F
QUINTON*       CLOUDY    75  71  86 CALM      29.96S
CHARLOTTSVILLE CLOUDY    68  64  87 NE9       30.00R FOG
GORDONSVILLE*  CLOUDY    64  64 100 N3        29.99R FOG
ORANGE*        DRIZZLE   66  66 100 CALM      30.01S
LOUISA*        CLOUDY    72  70  94 NE6       29.97F
BUMPASS*       CLOUDY    69  69 100 E7        29.98S
FARMVILLE*     CLOUDY    79  69  73 S3        29.94F
CREWE*         PTSUNNY   76  71  83 CALM      29.95S
FORT PICKETT*  CLOUDY    76  69  77 CALM      29.96S
CHASE CITY*    CLOUDY    75  71  88 CALM      29.96S
CLARKSVILLE*   PTSUNNY   79  72  78 S3        29.95S
SOUTH HILL*    PTSUNNY   78  71  80 S5        30.01S
LAWRENCEVILLE* PTSUNNY   79  70  75 SE3       29.96S
EMPORIA*       PTSUNNY   79  70  73 SE3       29.97F
$$

VAZ088>098-281800-
SOUTHEAST VIRGINIA

CITY           SKY/WX    TMP DP  RH WIND       PRES   REMARKS
NORFOLK        CLOUDY    77  69  76 E9        29.98R
VIRGINIA BEACH CLOUDY    75  68  78 E12       29.98R
NORFOLK NAVAL  PTSUNNY   77  70  79 E9        29.99S
WEST POINT*    CLOUDY    77  69  77 SE8       29.98F
SALUDA*        CLOUDY    74  71  91 SE5       29.98S
NEWPORT NEWS   CLOUDY    77  70  79 E10       29.98S
LANGLEY AFB    PTSUNNY   79  70  74 E13       29.97F
FORT EUSTIS    PTSUNNY   81  71  71 SE10      29.95F
WILLIAMSBURG*  SUNNY     81  72  74 SE7       29.98F
HR EXEC AP*    CLOUDY    81  70  69 S6        29.99S
FRANKLIN*      PTSUNNY   80  69  69 S6        29.97F
US460-WAKEFLD  PTSUNNY   78  68  71 S3        29.96F
$$

VAZ020-022-025-037-045-281800-
WEST CENTRAL AND SOUTHWEST VIRGINIA

CITY           SKY/WX    TMP DP  RH WIND       PRES   REMARKS
STAUNTON*      CLOUDY    67  61  81 NE3       30.01F
WAYNESBORO*    CLOUDY    67  62  83 E5        30.00S
HOT SPRINGS VA MOSUNNY   64  54  71 SE7       30.04S
LYNCHBURG      PTSUNNY   74  65  73 E5        29.97S
DANVILLE       CLOUDY    76  69  79 MISG      29.95S
SOUTH BOSTON*  CLOUDY    75  71  85 SE3       29.96S
MARTINSVILLE   CLOUDY    72  66  81 CALM      29.99S
ROANOKE        PTSUNNY   72  60  66 VRB5      29.99S
BLACKSBURG     CLOUDY    71  59  66 E6        30.02S
DUBLIN*        MOSUNNY   72  60  65 CALM      30.00S
MARION*        SUNNY     75  62  64 SW7       30.01F
HILLSVILLE*    PTSUNNY   71  64  78 SE7       29.99F
RICHLANDS*     FAIR      72  54  52 W8        29.99F
WISE*          SUNNY     70  32  24 SW5       30.00F
ABINGDON*      SUNNY     73  57  55 W8        29.98F
$$

MDZ021>025-VAZ099-100-281800-
SOUTHERN MARYLAND AND THE DELMARVA PENINSULA

CITY           SKY/WX    TMP DP  RH WIND       PRES   REMARKS
PATUXENT RIVER PTSUNNY   69  66  90 E10       29.99S
BAY BRIDGE APT CLOUDY    68  64  88 MISG      30.02R
LEONARDTOWN    CLOUDY    68  64  88 E9G18     30.01S
DOVER          CLOUDY    69  69 100 E20G28    30.01S
GEORGETOWN     LGT RAIN  68  66  93 E10       30.04R
EASTON         PTSUNNY   72  64  78 E12G20    30.04R
CAMBRIDGE      CLOUDY    66  64  94 E7        30.00S
SALISBURY      CLOUDY    72  66  81 E14G21    30.01F
OCEAN CITY     CLOUDY    74  67  78 NE12      30.03S
WALLOPS ISLAND PTSUNNY   76  71  85 E15       30.01S
ACCOMACK*      PTSUNNY   78  67  69 SE13      29.99S
$$

NCZ012>017-030>032-281800-
NORTH CENTRAL AND EASTERN NORTH CAROLINA

CITY           SKY/WX    TMP DP  RH WIND       PRES   REMARKS
ROANOKE RAPIDS PTSUNNY   79  70  73 S7        29.96F
RALEIGH        PTSUNNY   83  69  62 SW6       29.96F
ELIZABETH CITY CLOUDY    80  69  69 E8        29.98S
AHOSKIE*       SUNNY     77  73  86 CALM      29.96F
EDENTON*       SUNNY     83  66  56 S5        29.98S
CURRITUCK*     NOT AVBL
KILL DEVIL HLS PTSUNNY   82  75  78 E6        29.98R
MANTEO         PTSUNNY   78  71  78 SE6       29.99S
CAPE HATTERAS  PTSUNNY   83  72  69 SE7       29.99S
TARBORO*       CLOUDY    82  73  72 CALM      29.97F
GOLDSBORO      MOSUNNY   83  73  70 S7        29.94F
WASHINGTON     MOSUNNY   82  71  68 SE6       29.97S
GREENVILLE     PTSUNNY   82  72  69 SW6       29.98F
NEW BERN       CLOUDY    84  70  62 SW7       29.98F
WILMINGTON     MOSUNNY   84  72  67 S6        29.97S
$$

VAZ048-281800-
ELSEWHERE

CITY           SKY/WX    TMP DP  RH WIND       PRES   REMARKS
HARRISBURG PA  PTSUNNY   74  55  51 E20       30.04S
BALTIMORE      RAIN      66  63  90 E12       30.02F FOG
ANNAPOLIS      CLOUDY    68  65  90 NE5       30.02S
ANDREWS AFB    LGT RAIN  66  64  94 E7        29.99S
PHILADELPHIA   CLOUDY    69  64  84 NE8       30.06F
HENDERSON NC   PTSUNNY   76  67  72 SW8       29.96S
GREENSBORO     PTSUNNY   79  69  71 S8        29.95S
ROCKY MOUNT    PTSUNNY   82  72  71 SW5       29.96S
$$

VAZ100-281800-
MARINE

STATION/POSITION TIME  TEMP    WIND        PRES    WAVE   SWELL
                       AIR SEA DIR/SP/G            HT/PER HT/PER
                 (UTC) (F)     (DEG/KT/KT) (MB)    (FT/S) (FT/S)
BRANDYWINE LGT   1642   69      80/ 19/ 22   N/A
CAPE MAY NJ      1642   70 72   30/  4/  7 1017.9R
LEWES DE         1642   71 71   70/ 17/ 20 1016.9F
OCEAN-CITY-INLET 1642   72 73   70/  5/  9 1017.2F
WACHAPREAGUE VA  1642   74 75  100/  8/ 12 1015.7S
THOMAS POINT MD  1700   67 74   30/  8/ 10 1017.8R
GOOSES REEF MD   1650   70     120/ 16/ 19 1016.4R
COVE POINT MD    1642   68     110/ 19/ 23 1016.2R
SOLOMONS ISLAND  1642   70 75   90/ 18/ 22   N/A
BISHOPS HEAD MD  1642   67 71   40/ 15/ 27 1015.8S
PINEY POINT MD   1648          100/ 12/ 14   N/A
POTOMAC MD       1650   69      50/ 16/ 19 1015.1R
CAMBRIDGE MD     1642   69 72   90/ 12/ 16 1015.0R
LEWISETTA VA     1642   69 73   80/ 14/ 18 1015.3F
RAPPAHANNOCK LGT 1648          110/ 14/ 16 1015.8F
STINGRAY PT      1650   75      80/ 14/ 14 1015.7R
YORK RVR RNG VA  1642   75     130/ 14/ 15 1014.6F
YORKTOWN VA      1642   76 76  130/  8/ 12 1014.7F
JAMESTOWN VA     1650   76     130/  8/ 12   N/A
DOMINION TERM VA 1642   76      80/ 11/ 14 1015.1F
KIPTOPEKE VA     1648      75  120/ 11/ 15   N/A
CHES BAY BRIDGE  1642   74 76   70/ 12/ 14 1015.2R
CAPE HENRY VA    1642   74      90/ 12/ 13   N/A
WILLOUBY STN VA  1642   74      90/ 13/ 14   N/A
CAPE HENRY BUOY  1642      76                N/A     3/ 7   2/11
1ST LANDING BUOY 1650   75     110/ 12/ 14 1015.3R
CAPE CHARLES BUO 1626      76                N/A     3/ 8   2/12
OFFSHORE WE BUOY 1621      76                N/A     4/ 7   2/11
64NM E OF VA BCH 1650   76 75   60/  6/  8 1015.2R   4/ 7   3/ 7
DUCK PIER NC     1642   77 77   90/  7/  8 1015.0R
44056 DUCK FRF   1641      77                N/A     3/ 7   2/12
OREGON INLET NC  1642   76 76   70/  6/  8 1015.4R
HATTERAS NC      1642   77 76  110/  2/  5 1015.3S
DIAMOND SHLS NC  1650   77 84   50/  6/  8 1015.7R   4/ 8   3/ 8
CAPE LOOKOUT NC  1600   78     110/  5/  5 1015.1F
$$




USA.gov is the U.S. government's official web portal to all federal, state and local government web resources and services.